TimeAKST,TemperatureF,Dew PointF,Humidity,Sea Level PressureIn,VisibilityMPH,Wind Direction,Wind SpeedMPH,Gust SpeedMPH,PrecipitationIn,Events,Conditions,WindDirDegrees,DateUTC
12:53 AM,7.0,-6.0,55,29.47,10.0,ENE,11.5,-,N/A,,Clear,60,2012-12-05 09:53:00
1:53 AM,8.1,-8.0,48,29.47,10.0,NE,10.4,-,N/A,,Clear,50,2012-12-05 10:53:00
3:53 AM,3.9,-7.1,60,29.47,10.0,NNE,3.5,-,N/A,,Clear,30,2012-12-05 12:53:00
5:53 AM,5.0,-6.0,61,29.48,10.0,NE,8.1,-,N/A,,Clear,50,2012-12-05 14:53:00
6:53 AM,3.9,-5.1,66,29.47,10.0,Calm,Calm,-,N/A,,Clear,0,2012-12-05 15:53:00
7:53 AM,3.0,-4.0,73,29.48,10.0,NE,4.6,-,N/A,,Clear,40,2012-12-05 16:53:00
8:53 AM,6.1,-4.0,63,29.49,10.0,NE,4.6,-,N/A,,Clear,40,2012-12-05 17:53:00
9:53 AM,6.1,-2.9,67,29.50,10.0,NE,5.8,-,N/A,,Clear,50,2012-12-05 18:53:00
10:53 AM,8.1,-2.9,61,29.52,10.0,ENE,6.9,-,N/A,,Clear,60,2012-12-05 19:53:00
11:53 AM,12.0,-0.9,56,29.52,10.0,NE,6.9,-,N/A,,Clear,40,2012-12-05 20:53:00
12:53 PM,14.0,1.9,59,29.52,10.0,ENE,4.6,-,N/A,,Clear,60,2012-12-05 21:53:00
1:53 PM,15.1,3.0,59,29.51,10.0,Calm,Calm,-,N/A,,Clear,0,2012-12-05 22:53:00
2:53 PM,14.0,1.9,59,29.51,10.0,NE,5.8,-,N/A,,Clear,50,2012-12-05 23:53:00
3:53 PM,10.9,1.0,64,29.51,10.0,NNE,5.8,-,N/A,,Clear,30,2012-12-06 00:53:00
4:53 PM,9.0,1.0,70,29.51,10.0,ENE,9.2,-,N/A,,Clear,60,2012-12-06 01:53:00
5:53 PM,8.1,-0.0,70,29.51,10.0,NE,4.6,-,N/A,,Clear,50,2012-12-06 02:53:00
6:53 PM,8.1,-0.0,70,29.53,10.0,NE,5.8,-,N/A,,Clear,40,2012-12-06 03:53:00
7:53 PM,8.1,-0.9,67,29.53,10.0,NE,5.8,-,N/A,,Clear,50,2012-12-06 04:53:00
8:53 PM,8.1,-2.0,64,29.54,10.0,NE,6.9,-,N/A,,Clear,40,2012-12-06 05:53:00
9:53 PM,7.0,-2.9,64,29.55,10.0,NE,6.9,-,N/A,,Clear,50,2012-12-06 06:53:00
10:53 PM,8.1,-2.9,61,29.56,10.0,NE,5.8,-,N/A,,Clear,40,2012-12-06 07:53:00
11:53 PM,8.1,-2.9,61,29.57,10.0,NNE,5.8,-,N/A,,Scattered Clouds,30,2012-12-06 08:53:00